Location: Arlington
(31.4185°N, 90.5568°W)
Time: 09:57:49
(UTC+00:00)

Nauka - Pass Details

Date: 06 October 2021
Orbit: 417 x 423 km, 51.6° (Epoch: 17 October)

Event Time Altitude Azimuth Distance (km) Brightness Sun altitude
Rises 00:34:16 0° 326° (NW) 2,359 ? -12.0°
Reaches altitude 10° 00:36:35 10° 339° (NNW) 1,495 ? -12.5°
Maximum altitude 00:39:28 26° 39° (NE) 854 ? -13.1°
Enters shadow 00:40:27 23° 68° (ENE) 950 ? -13.3°
